Weather History for Windom, MN

Change the Weather History Date:

Tuesday, May 28, 2013

  Actual Average Record
Temperature  
Mean Temperature 60 °F -  
Max Temperature 66 °F 74 °F 96 °F (2006)
Min Temperature 55 °F 53 °F 33 °F (1965)
Degree Days  
Heating Degree Days 4    
Growing Degree Days 10 (Base 50)    
Moisture  
Dew Point 56 °F    
Average Humidity 90    
Maximum Humidity 100    
Minimum Humidity 73    
Precipitation  
Precipitation 0.04 in - - ()
Sea Level Pressure  
Sea Level Pressure 29.74 in    
Wind  
Wind Speed 7 mph (NE)    
Max Wind Speed 13 mph    
Max Gust Speed -    
Visibility 5 miles    
Events Fog , Rain    
Averages and records for this station are not official NWS values.
T = Trace of Precipitation, MM = Missing Value Source: NWS Daily Summary

Daily Weather History Graph

Daily Weather History Graph

Search for Another Location

Airport:

Trip Planner

Search our weather history database for the weather conditions in past years. The results will help you decide how hot, cold, wet, or windy it might be!

Date:

Astronomy

May. 28, 2013 Rise Set
Actual Time 5:43 AM CDT 8:52 PM CDT
Civil Twilight 5:08 AM CDT 9:27 PM CDT
Nautical Twilight 4:23 AM CDT 10:13 PM CDT
Astronomical Twilight 3:28 AM CDT 11:07 PM CDT
Moon No Moon Rise 9:35 AM CDT (5/28)
Length of Visible Light 16h 19m
Length of Day
15h 09m
Waning Gibbous, 82% of the Moon is Illuminated
May 28
Waning Gibbous
May 31
Last Quarter
Jun 8
New
Jun 16
First Quarter
Jun 23
Full

Hourly Weather History & Observations

Time (CDT) Temp. Dew Point Humidity Pressure Visibility Wind Dir Wind Speed Gust Speed Precip Events Conditions
12:13 AM 55.4 °F 55.4 °F 100% 29.79 in 0.5 mi ENE 11.5 mph - N/A Fog Fog
12:32 AM 55.4 °F 53.6 °F 94% 29.77 in 0.5 mi ENE 12.7 mph - N/A Fog Fog
12:52 AM 55.4 °F 53.6 °F 94% 29.76 in 0.8 mi ENE 11.5 mph - N/A Rain Light Rain
1:13 AM 55.4 °F 53.6 °F 94% 29.74 in 0.8 mi ENE 11.5 mph - N/A   Overcast
1:32 AM 55.4 °F 53.6 °F 94% 29.76 in 0.5 mi ENE 8.1 mph - N/A Fog Fog
1:52 AM 55.4 °F 53.6 °F 94% 29.74 in 0.2 mi ENE 10.4 mph - N/A Fog Fog
2:13 AM 55.4 °F 53.6 °F 94% 29.74 in 0.2 mi ENE 8.1 mph - N/A Fog Fog
2:32 AM 55.4 °F 53.6 °F 94% 29.74 in 0.2 mi East 10.4 mph - N/A Fog Fog
2:52 AM 55.4 °F 53.6 °F 94% 29.74 in 0.2 mi East 8.1 mph - N/A Fog Fog
3:13 AM 55.4 °F 53.6 °F 94% 29.74 in 0.5 mi ENE 6.9 mph - N/A Fog Fog
3:33 AM 55.4 °F 53.6 °F 94% 29.73 in 0.2 mi ENE 6.9 mph - N/A Fog Fog
3:52 AM 55.4 °F 53.6 °F 94% 29.74 in 0.2 mi East 8.1 mph - N/A Fog Fog
4:13 AM 55.4 °F 53.6 °F 94% 29.73 in 0.2 mi NE 5.8 mph - N/A Fog Fog
4:33 AM 55.4 °F 53.6 °F 94% 29.72 in 0.2 mi NE 5.8 mph - N/A   Drizzle
4:52 AM 55.4 °F 53.6 °F 94% 29.72 in 0.2 mi NE 6.9 mph - N/A   Heavy Drizzle
5:13 AM 55.4 °F 53.6 °F 94% 29.72 in 0.2 mi NE 5.8 mph - N/A   Drizzle
5:33 AM 55.4 °F 53.6 °F 94% 29.72 in 0.2 mi NE 5.8 mph - N/A   Heavy Drizzle
5:52 AM 55.4 °F 53.6 °F 94% 29.72 in 0.2 mi NNE 6.9 mph - N/A   Heavy Drizzle
6:13 AM 55.4 °F 53.6 °F 94% 29.71 in 0.2 mi NE 6.9 mph - N/A   Heavy Drizzle
6:33 AM 55.4 °F 53.6 °F 94% 29.70 in 0.2 mi NE 4.6 mph - N/A   Heavy Drizzle
6:52 AM 55.4 °F 53.6 °F 94% 29.70 in 0.2 mi Calm Calm - N/A   Light Drizzle
7:13 AM 55.4 °F 53.6 °F 94% 29.70 in 0.2 mi NE 4.6 mph - N/A   Light Drizzle
7:32 AM 55.4 °F 53.6 °F 94% 29.71 in 0.2 mi ENE 5.8 mph - N/A   Light Drizzle
7:52 AM 55.4 °F 53.6 °F 94% 29.69 in 0.2 mi ENE 9.2 mph - N/A   Drizzle
8:13 AM 55.4 °F 53.6 °F 94% 29.70 in 0.2 mi ENE 9.2 mph - N/A   Light Drizzle
8:32 AM 55.4 °F 55.4 °F 100% 29.70 in 0.2 mi ENE 8.1 mph - N/A   Light Drizzle
8:52 AM 55.4 °F 55.4 °F 100% 29.70 in 0.2 mi ENE 8.1 mph - N/A Fog Fog
9:12 AM 55.4 °F 55.4 °F 100% 29.70 in 0.2 mi East 8.1 mph - N/A Fog Fog
9:32 AM 55.4 °F 55.4 °F 100% 29.70 in 0.2 mi East 6.9 mph - N/A Fog Fog
9:53 AM 57.2 °F 55.4 °F 94% 29.70 in 0.5 mi East 6.9 mph - N/A Fog Fog
10:12 AM 57.2 °F 55.4 °F 94% 29.71 in 0.2 mi East 4.6 mph - N/A Fog Fog
10:32 AM 57.2 °F 55.4 °F 94% 29.72 in 0.2 mi ESE 5.8 mph - N/A Fog Fog
10:53 AM 57.2 °F 55.4 °F 94% 29.72 in 1.0 mi NNW 3.5 mph - N/A Rain Rain
11:12 AM 57.2 °F 55.4 °F 94% 29.73 in 2.0 mi Calm Calm - 0.02 in Rain Rain
11:32 AM 57.2 °F 55.4 °F 94% 29.74 in 3.0 mi Calm Calm - 0.04 in Rain Rain
11:52 AM 57.2 °F 57.2 °F 100% 29.73 in 4.0 mi Calm Calm - 0.04 in Rain Rain
12:12 PM 57.2 °F 57.2 °F 100% 29.74 in 7.0 mi Calm Calm - N/A Rain Light Rain
12:33 PM 59.0 °F 57.2 °F 94% 29.75 in 10.0 mi West 5.8 mph - N/A   Overcast
12:52 PM 59.0 °F 57.2 °F 94% 29.75 in 10.0 mi West 8.1 mph - N/A   Overcast
1:12 PM 59.0 °F 57.2 °F 94% 29.74 in 7.0 mi WNW 4.6 mph - N/A   Overcast
1:33 PM 60.8 °F 57.2 °F 88% 29.75 in 10.0 mi West 6.9 mph - N/A   Overcast
1:52 PM 60.8 °F 57.2 °F 88% 29.75 in 10.0 mi West 8.1 mph - N/A   Overcast
2:12 PM 60.8 °F 57.2 °F 88% 29.75 in 10.0 mi NW 8.1 mph - N/A   Overcast
2:33 PM 62.6 °F 57.2 °F 82% 29.74 in 10.0 mi NW 9.2 mph - N/A   Overcast
2:52 PM 62.6 °F 57.2 °F 82% 29.75 in 10.0 mi NNW 6.9 mph - N/A   Overcast
3:12 PM 62.6 °F 57.2 °F 82% 29.75 in 10.0 mi NNW 9.2 mph - N/A   Overcast
3:33 PM 62.6 °F 57.2 °F 82% 29.74 in 10.0 mi NNW 8.1 mph - N/A   Overcast
3:52 PM 62.6 °F 57.2 °F 82% 29.74 in 10.0 mi Calm Calm - N/A   Mostly Cloudy
4:12 PM 62.6 °F 57.2 °F 82% 29.75 in 10.0 mi Calm Calm - N/A   Overcast
4:33 PM 62.6 °F 57.2 °F 82% 29.76 in 10.0 mi Calm Calm - N/A   Overcast
4:52 PM 64.4 °F 57.2 °F 77% 29.76 in 10.0 mi Calm Calm - N/A   Overcast
5:13 PM 64.4 °F 57.2 °F 77% 29.76 in 10.0 mi Calm Calm - N/A   Overcast
5:32 PM 64.4 °F 57.2 °F 77% 29.77 in 10.0 mi Calm Calm - N/A   Overcast
5:52 PM 64.4 °F 57.2 °F 77% 29.76 in 10.0 mi Calm Calm - N/A   Mostly Cloudy
6:12 PM 66.2 °F 57.2 °F 73% 29.75 in 10.0 mi Calm Calm - N/A   Mostly Cloudy
6:32 PM 66.2 °F 57.2 °F 73% 29.75 in 10.0 mi Calm Calm - N/A   Clear
6:53 PM 66.2 °F 57.2 °F 73% 29.74 in 10.0 mi Calm Calm - N/A   Scattered Clouds
7:12 PM 66.2 °F 57.2 °F 73% 29.73 in 10.0 mi Calm Calm - N/A   Clear
7:32 PM 64.4 °F 57.2 °F 77% 29.73 in 10.0 mi Calm Calm - N/A   Clear
7:53 PM 64.4 °F 57.2 °F 77% 29.73 in 10.0 mi Calm Calm - N/A   Clear
8:12 PM 62.6 °F 59.0 °F 88% 29.74 in 10.0 mi East 3.5 mph - N/A   Scattered Clouds
8:32 PM 60.8 °F 57.2 °F 88% 29.73 in 10.0 mi Calm Calm - N/A   Clear
8:53 PM 60.8 °F 57.2 °F 88% 29.73 in 10.0 mi Calm Calm - N/A   Clear
9:12 PM 59.0 °F 57.2 °F 94% 29.73 in 7.0 mi Calm Calm - N/A   Clear
9:32 PM 57.2 °F 55.4 °F 94% 29.74 in 7.0 mi Calm Calm - N/A   Clear
9:53 PM 57.2 °F 55.4 °F 94% 29.75 in 10.0 mi Calm Calm - N/A   Clear
10:12 PM 57.2 °F 55.4 °F 94% 29.78 in 7.0 mi Calm Calm - N/A   Clear
10:32 PM 57.2 °F 55.4 °F 94% 29.78 in 7.0 mi Calm Calm - N/A   Clear
10:53 PM 57.2 °F 55.4 °F 94% 29.78 in 4.0 mi ESE 3.5 mph - N/A   Clear
11:12 PM 57.2 °F 55.4 °F 94% 29.78 in 4.0 mi Calm Calm - N/A   Clear
11:32 PM 57.2 °F 57.2 °F 100% 29.78 in 1.2 mi Calm Calm - N/A   Mostly Cloudy
11:53 PM 57.2 °F 57.2 °F 100% 29.78 in 0.2 mi Calm Calm - N/A Rain Rain